This is the latest recevied weather packets stored in our database for station/object SR5NLK-1. If no packets are shown the sender has not sent any weather packets the latest 1 day(s).
| Time | Temp. | Humidity | Pressure | Rain* | Wind** | Luminosity | Snow |
|---|---|---|---|---|---|---|---|
| 1777968453 | 33.89° C | 30% | 927.9 hPa | 0 mm | 0 m/s | - | - |
| 1777968153 | 34.44° C | 30% | 980.9 hPa | 0 mm | 1.34 m/s, 67° | - | - |
| 1777967853 | 35° C | 30% | 1018.1 hPa | 0 mm | 0.45 m/s, 157° | - | - |
| 1777967554 | 34.44° C | 30% | 1015.5 hPa | 0 mm | 0.89 m/s, 202° | - | - |
| 1777967312 | 34.44° C | 31% | 1019.8 hPa | 0 mm | 0.89 m/s, 157° | - | - |
| 1777967253 | 33.89° C | 31% | 1013.5 hPa | 0 mm | 1.34 m/s, 135° | - | - |
| 1777966953 | 33.89° C | 31% | 970.1 hPa | 0 mm | 0 m/s | - | - |
| 1777966653 | 33.33° C | 31% | 1055.3 hPa | 0 mm | 0.45 m/s, 157° | - | - |
| 1777966353 | 33.33° C | 31% | 952.9 hPa | 0 mm | 1.34 m/s, 112° | - | - |
| 1777966053 | 33.33° C | 31% | 1084.7 hPa | 0 mm | 1.34 m/s, 157° | - | - |
| 1777965753 | 32.78° C | 32% | 1009.1 hPa | 0 mm | 0.45 m/s, 0° | - | - |
| 1777965461 | 33.33° C | 31% | 1064.8 hPa | 0 mm | 0.89 m/s, 180° | - | - |
| 1777965453 | 33.33° C | 31% | 1064.8 hPa | 0 mm | 0.89 m/s, 180° | - | - |
| 1777965332 | 33.89° C | 31% | 974.6 hPa | 0 mm | 1.34 m/s, 135° | - | - |
| 1777965153 | 33.89° C | 32% | 1052.2 hPa | 0 mm | 0.45 m/s, 22° | - | - |
| 1777964853 | 33.89° C | 32% | 1036.7 hPa | 0 mm | 1.34 m/s, 90° | - | - |
| 1777964553 | 32.78° C | 34% | 1058.4 hPa | 0 mm | 0.45 m/s, 157° | - | - |
| 1777964253 | 32.78° C | 34% | 1020.1 hPa | 0 mm | 0.45 m/s, 0° | - | - |
| 1777963953 | 31.67° C | 36% | 1011.1 hPa | 0 mm | 0.45 m/s, 67° | - | - |
| 1777963653 | 30.56° C | 38% | 1010.4 hPa | 0 mm | 0.89 m/s, 67° | - | - |
| 1777963200 | 29.44° C | 40% | 1014.8 hPa | 0 mm | 0.89 m/s, 90° | - | - |
| 1777962899 | 28.89° C | 40% | 1088.4 hPa | 0 mm | 0.89 m/s, 112° | - | - |
| 1777962599 | 27.78° C | 41% | 1033.4 hPa | 0 mm | 1.34 m/s, 45° | - | - |
| 1777962299 | 27.22° C | 43% | 1090.6 hPa | 0 mm | 0 m/s | - | - |
| 1777962000 | 26.67° C | 45% | 1081.5 hPa | 0 mm | 0.89 m/s, 67° | - | - |
* Rain latest hour (hover to see other rain measurements)
** Current wind speed in m/s (hover to see current wind gust speed)